, AK

(GMT )
Anchorage

Weather History for PANC - January, 2013

Change the Weather History Date:

Thursday, January 3, 2013

  Actual Average Record
Temperature  
Mean Temperature 31 °F 18 °F  
Max Temperature 33 °F 24 °F 47 °F (1986)
Min Temperature 28 °F 12 °F -29 °F (1975)
Degree Days  
Heating Degree Days 34    
Month to date heating degree days 92  
Since 1 July heating degree days 5103  
Cooling Degree Days 0    
Month to date cooling degree days 0  
Year to date cooling degree days 0  
Moisture  
Dew Point 24 °F    
Average Humidity 77    
Maximum Humidity 85    
Minimum Humidity 69    
Precipitation  
Precipitation 0.00 in 0.02 in 0.45 in (2007)
Month to date precipitation T 0.08  
Year to date precipitation T 0.08  
Snow  
Snow 0.00 in 0.40 in 11.20 in (2007)
Month to date snowfall T 1.3  
Since 1 July snowfall 24.9 39.4  
Snow Depth 9.00 in    
Sea Level Pressure  
Sea Level Pressure 29.54 in    
Wind  
Wind Speed 6 mph (WNW)    
Max Wind Speed 12 mph    
Max Gust Speed 16 mph    
Visibility 10 miles    
Events      
T = Trace of Precipitation, MM = Missing Value Source: NWS Daily Summary

Daily Weather History Graph

Daily Weather History Graph

Search for Another Location

Airport or City:

Trip Planner

Search our weather history database for the weather conditions in past years. The results will help you decide how hot, cold, wet, or windy it might be!

Date:

Astronomy

Jan. 03, 2013 Rise Set
Actual Time 10:11 AM AKST 3:57 PM AKST
Civil Twilight 9:11 AM AKST 4:58 PM AKST
Nautical Twilight 8:13 AM AKST 5:56 PM AKST
Astronomical Twilight 7:20 AM AKST 6:49 PM AKST
Moon No Moon Rise 11:26 AM AKST (1/3)
Length of Visible Light 7h 46m
Length of Day
5h 46m
Waning Gibbous, 64% of the Moon is Illuminated
Jan 3
Waning Gibbous
Jan 4
Last Quarter
Jan 11
New
Jan 18
First Quarter
Jan 26
Full

Hourly Weather History & Observations

Time (AKST) Temp. Windchill Dew Point Humidity Pressure Visibility Wind Dir Wind Speed Gust Speed Precip Events Conditions
12:53 AM 30.0 °F 22.4 °F 26.1 °F 85% 29.54 in 10.0 mi NW 8.1 mph - N/A   Overcast
1:53 AM 28.9 °F 20.4 °F 25.0 °F 85% 29.54 in 10.0 mi West 9.2 mph - N/A   Overcast
3:53 AM 28.9 °F 22.8 °F 24.1 °F 82% 29.55 in 10.0 mi NW 5.8 mph - N/A   Overcast
4:53 AM 28.0 °F 20.8 °F 24.1 °F 85% 29.53 in 10.0 mi Variable 6.9 mph - N/A   Overcast
5:53 AM 28.0 °F 21.7 °F 24.1 °F 85% 29.53 in 10.0 mi WNW 5.8 mph - N/A   Overcast
6:53 AM 30.0 °F 21.1 °F 24.1 °F 79% 29.52 in 10.0 mi NW 10.4 mph - N/A   Overcast
7:53 AM 30.0 °F 24.1 °F 24.1 °F 79% 29.52 in 10.0 mi SW 5.8 mph - N/A   Overcast
8:53 AM 30.9 °F - 25.0 °F 79% 29.51 in 10.0 mi Calm Calm - N/A   Mostly Cloudy
9:53 AM 30.9 °F 22.8 °F 25.0 °F 79% 29.52 in 10.0 mi East 9.2 mph - N/A   Mostly Cloudy
10:53 AM 30.9 °F 26.2 °F 24.1 °F 76% 29.54 in 10.0 mi WSW 4.6 mph - N/A   Mostly Cloudy
11:53 AM 30.9 °F 22.8 °F 24.1 °F 76% 29.54 in 10.0 mi WNW 9.2 mph - N/A   Mostly Cloudy
12:53 PM 32.0 °F - 24.1 °F 73% 29.54 in 10.0 mi Calm Calm - N/A   Mostly Cloudy
1:53 PM 32.0 °F 24.2 °F 25.0 °F 75% 29.54 in 10.0 mi WNW 9.2 mph 16.1 mph N/A   Mostly Cloudy
2:53 PM 33.1 °F 26.1 °F 24.1 °F 70% 29.53 in 10.0 mi North 8.1 mph - N/A   Mostly Cloudy
3:53 PM 32.0 °F 24.2 °F 25.0 °F 75% 29.53 in 10.0 mi NNW 9.2 mph - N/A   Overcast
4:53 PM 32.0 °F 23.0 °F 24.8 °F 75% 29.54 in 10.0 mi WNW 11.5 mph - N/A   Overcast
5:53 PM 30.2 °F 24.3 °F 24.8 °F 80% 29.55 in 10.0 mi Variable 5.8 mph - N/A   Overcast
6:53 PM 30.2 °F 23.4 °F 23.0 °F 75% 29.55 in 10.0 mi WNW 6.9 mph - N/A   Overcast
7:53 PM 30.2 °F 26.7 °F 23.0 °F 75% 29.55 in 10.0 mi West 3.5 mph - N/A   Overcast
8:53 PM 30.2 °F 26.7 °F 23.0 °F 75% 29.55 in 10.0 mi West 3.5 mph - N/A   Overcast
9:53 PM 28.4 °F 24.6 °F 23.0 °F 80% 29.56 in 10.0 mi West 3.5 mph - N/A   Overcast
10:53 PM 28.4 °F - 23.0 °F 80% 29.57 in 10.0 mi Calm Calm - N/A   Overcast
11:53 PM 30.2 °F 25.4 °F 24.8 °F 80% 29.59 in 10.0 mi West 4.6 mph - N/A   Overcast